This demonstration page uses our WeatherBlox Daily Observations layout. Learn more.

Left ArrowRight Arrow

40.92945, -100.16068

Hourly Observations for February 16, 2015

Temp ( °F °C ) Dew Point ( °F °C ) Humidity (%) Winds ( mph kmh ) Pressure ( in mb ) Visibility ( mi km ) Precip ( " mm )
12:15 am 00:15 Clear 23 -5.2 16 -8.8 76 76 S 3 6 30.27 1025 10 16 N/A
12:35 am 00:35 Clear 22 -5.5 16 -8.7 78 78 SSW 3 6 30.27 1025 10 16 N/A
12:55 am 00:55 Clear 22 -5.4 17 -8.6 78 78 WSW 3 6 30.27 1025 10 16 N/A
1:15 am 01:15 Clear 22 -5.5 17 -8.4 80 80 W 5 7 30.27 1025 10 16 N/A
1:35 am 01:35 Clear 21 -6.1 17 -8.3 85 85 W 5 7 30.27 1025 10 16 N/A
1:55 am 01:55 Clear 21 -5.9 17 -8.3 83 83 WNW 3 6 30.27 1025 10 16 N/A
2:15 am 02:15 Clear 21 -6.1 17 -8.2 85 85 WNW 3 6 30.27 1025 10 16 N/A
2:35 am 02:35 Clear 21 -6.1 18 -7.8 88 88 WNW 5 7 30.27 1025 10 16 N/A
2:55 am 02:55 Clear 21 -6.3 18 -7.8 89 89 WNW 6 9 30.24 1024 10 16 N/A
3:15 am 03:15 Clear 20 -6.6 17 -8.1 89 89 WNW 3 6 30.24 1024 10 16 N/A
3:35 am 03:35 Clear 21 -6.2 18 -7.6 90 90 WNW 5 7 30.24 1024 10 16 N/A
3:55 am 03:55 Clear 22 -5.7 19 -7.1 90 90 WNW 6 9 30.24 1024 10 16 N/A
4:15 am 04:15 Clear 23 -5 21 -6.3 91 91 WNW 6 9 30.24 1024 10 16 N/A
4:35 am 04:35 Clear 23 -5.2 20 -6.5 91 91 WNW 6 9 30.24 1024 10 16 N/A
4:55 am 04:55 Clear 24 -4.7 21 -5.9 91 91 WNW 7 11 30.24 1024 10 16 N/A
5:15 am 05:15 Clear 23 -5.1 20 -6.4 91 91 NW 5 7 30.24 1024 10 16 N/A
5:35 am 05:35 Mostly Cloudy 22 -5.4 20 -6.5 92 92 NW 6 9 30.24 1024 10 16 N/A
5:55 am 05:55 Cloudy 23 -5.1 21 -6.2 92 92 NNW 7 11 30.24 1024 10 16 N/A
6:15 am 06:15 Cloudy 22 -5.6 20 -6.9 91 91 NNW 5 7 30.24 1024 10 16 N/A
6:35 am 06:35 Cloudy 22 -5.5 20 -6.7 91 91 WNW 6 9 30.24 1024 10 16 N/A
6:55 am 06:55 Mostly Cloudy 22 -5.4 20 -6.6 91 91 WNW 10 17 30.27 1025 10 16 N/A
7:15 am 07:15 Mostly Cloudy 24 -4.3 22 -5.6 91 91 WNW 9 15 30.24 1024 10 16 N/A
7:35 am 07:35 Cloudy 24 -4.3 22 -5.7 90 90 NW 7 11 30.24 1024 10 16 N/A
7:55 am 07:55 Cloudy 25 -4.1 22 -5.5 90 90 NNW 7 11 30.24 1024 10 16 N/A
8:15 am 08:15 Cloudy 26 -3.4 23 -5 89 89 NNW 7 11 30.24 1024 10 16 N/A
8:35 am 08:35 Cloudy 28 -2.5 25 -4.1 89 89 Calm 30.24 1024 10 16 N/A
8:55 am 08:55 Cloudy 29 -1.8 26 -3.6 88 88 WNW 6 9 30.24 1024 10 16 N/A
9:15 am 09:15 Cloudy 31 -0.7 27 -2.8 86 86 NW 7 11 30.21 1023 10 16 N/A
9:35 am 09:35 Cloudy 32 -0.1 27 -2.7 83 83 NNW 6 9 30.21 1023 10 16 N/A
9:55 am 09:55 Cloudy 32 0 27 -2.7 82 82 N 8 13 30.21 1023 10 16 N/A
10:15 am 10:15 Cloudy 33 0.4 28 -2.5 81 81 N 9 15 30.21 1023 10 16 N/A
10:35 am 10:35 Cloudy 34 0.9 26 -3.1 75 75 N 8 13 30.21 1023 10 16 N/A
10:55 am 10:55 Cloudy 35 1.5 26 -3.5 70 70 N 5 7 30.18 1022 10 16 N/A
11:15 am 11:15 Cloudy 35 1.7 25 -3.7 68 68 N 6 9 30.18 1022 10 16 N/A
11:35 am 11:35 Cloudy 37 2.9 25 -3.8 62 62 NNE 5 7 30.18 1022 10 16 N/A
11:55 am 11:55 Mostly Cloudy 38 3.3 25 -3.9 60 60 N 6 9 30.18 1022 10 16 N/A
12:15 pm 12:15 Mostly Cloudy 39 3.7 25 -3.7 59 59 N 7 11 30.18 1022 10 16 N/A
12:35 pm 12:35 Mostly Cloudy 38 3.6 26 -3.5 60 60 NNW 8 13 30.18 1022 10 16 N/A
12:55 pm 12:55 Mostly Cloudy 40 4.4 26 -3.4 57 57 NNW 7 11 30.15 1021 10 16 N/A
1:15 pm 13:15 Cloudy 39 4.1 26 -3.4 58 58 NNW 5 7 30.15 1021 10 16 N/A
1:35 pm 13:35 Cloudy 41 4.9 26 -3.1 57 57 NW 7 11 30.12 1020 10 16 N/A
1:55 pm 13:55 Mostly Cloudy 42 5.5 27 -2.9 55 55 NNW 8 13 30.09 1019 10 16 N/A
2:15 pm 14:15 Cloudy 41 5 26 -3.4 55 55 NW 9 15 30.09 1019 10 16 N/A
2:35 pm 14:35 Cloudy 42 5.5 26 -3.6 52 52 NNW 14 22 30.09 1019 10 16 N/A
2:55 pm 14:55 Cloudy 43 5.9 25 -3.8 50 50 N 10 17 30.09 1019 10 16 N/A
3:15 pm 15:15 Cloudy 42 5.5 25 -3.7 52 52 N 14 22 30.09 1019 10 16 N/A
3:35 pm 15:35 Cloudy 42 5.5 25 -4.1 50 50 N 12 19 30.09 1019 10 16 N/A
3:55 pm 15:55 Cloudy 41 5 24 -4.4 51 51 NNW 14 22 30.09 1019 10 16 N/A
4:15 pm 16:15 Cloudy 42 5.3 24 -4.6 49 49 N 16 26 30.09 1019 10 16 N/A
4:35 pm 16:35 Cloudy 42 5.3 23 -5 48 48 NNW 17 28 30.09 1019 10 16 N/A
5:15 pm 17:15 Cloudy 42 5.5 22 -5.4 46 46 N 12 19 30.09 1019 10 16 N/A
5:35 pm 17:35 Mostly Cloudy 39 3.9 22 -5.4 51 51 N 7 11 30.09 1019 10 16 N/A
5:55 pm 17:55 Mostly Cloudy 37 2.7 22 -5.5 55 55 N 7 11 30.12 1020 10 16 N/A
6:15 pm 18:15 Mostly Cloudy 35 1.4 22 -5.3 61 61 N 6 9 30.12 1020 10 16 N/A
6:35 pm 18:35 Mostly Cloudy 34 1 22 -5.5 62 62 Calm 30.12 1020 10 16 N/A
6:55 pm 18:55 Cloudy 35 1.7 24 -4.5 64 64 NW 12 19 30.15 1021 10 16 N/A
7:15 pm 19:15 Cloudy with Light Snow 33 0.3 30 -1 91 91 NNW 9 15 30.18 1022 2 3 N/A
7:55 pm 19:55 Mostly Cloudy 28 -2.2 27 -2.9 95 95 WNW 7 11 30.21 1023 10 16 N/A
8:15 pm 20:15 Cloudy 30 -1 29 -1.7 95 95 W 6 9 30.18 1022 10 16 N/A
8:35 pm 20:35 Partly Cloudy 28 -2.3 27 -3 95 95 W 8 13 30.21 1023 10 16 N/A
8:55 pm 20:55 Clear 26 -3.1 25 -3.8 95 95 W 7 11 30.21 1023 10 16 N/A
9:15 pm 21:15 Clear 25 -4 24 -4.6 96 96 W 6 9 30.21 1023 10 16 N/A
9:35 pm 21:35 Clear 25 -4 24 -4.6 96 96 W 7 11 30.21 1023 10 16 N/A
9:55 pm 21:55 Partly Cloudy 25 -4 24 -4.6 96 96 W 5 7 30.21 1023 10 16 N/A
10:15 pm 22:15 Partly Cloudy 24 -4.2 23 -5 94 94 WNW 7 11 30.21 1023 10 16 N/A
10:35 pm 22:35 Partly Cloudy 27 -2.8 26 -3.4 96 96 NW 9 15 30.21 1023 10 16 N/A
10:55 pm 22:55 Mostly Cloudy 29 -1.7 27 -3 91 91 NW 14 22 30.24 1024 10 16 N/A
11:15 pm 23:15 Cloudy 30 -1.1 27 -2.8 88 88 NW 15 24 30.18 1022 10 16 N/A
11:35 pm 23:35 Cloudy 31 -0.6 28 -2.5 87 87 NW 13 20 30.18 1022 10 16 N/A
11:55 pm 23:55 Cloudy 32 0 28 -2.5 83 83 NW 15 24 30.18 1022 10 16 N/A

Powered by AerisWeather